Regional Weather Roundup
Issued by NWS

Home | Current Version | Previous Version | Graphics & Text | Print | Product List | Glossary On
Versions: 1 2 3 4 5 6 7 8 9 10 11 12 13 14 15 16 17 18 19 20 21 22 23 24 25 26 27 28 29 30 31 32 33 34 35 36 37 38 39 40 41 42 43 44 45 46 47 48 49 50
000
ASUS44 KMEG 231210
RWRTN
TENNESSEE HOURLY STATE WEATHER ROUNDUP
NATIONAL WEATHER SERVICE MEMPHIS TN
700 AM CDT SUN APR 23 2017

TNZ002-004-019-021-049-052-054-088>092-231300-
WEST TENNESSEE

CITY           SKY/WX    TMP DP  RH WIND       PRES   REMARKS
MEMPHIS INTL   LGT RAIN  51  49  92 N9        29.93R
NWS MEMPHIS      N/A     49 N/A N/A MISG        N/A
JACKSON        CLOUDY    50  49  96 N10       29.90R
DYERSBURG      CLOUDY    50  46  86 N7        29.94R
SOMERVILLE     CLOUDY    50  48  93 N9        29.90R FOG
UNION CITY     CLOUDY    50  45  81 N10       29.92R
BOLIVAR        CLOUDY    50  48  93 NW8       29.89R
PARIS          CLOUDY    46  43  87 N14       29.90R
HUNTINGDON     CLOUDY    48  46  93 VRB6      29.89R
LEXINGTON      CLOUDY    48  48 100 N8        29.86R FOG
SAVANNAH       CLOUDY    50  50 100 N9        29.85R FOG
$$

TNZ008-025-027-028-033-062-065-066-231300-
NORTH MIDDLE TENNESSEE

CITY           SKY/WX    TMP DP  RH WIND       PRES   REMARKS
NASHVILLE      DRIZZLE   51  49  92 NE12      29.85R FOG
PORTLAND       CLOUDY    48  48 100 NE9G16    29.86R
CLARKSVILLE    CLOUDY    48  44  86 NE12      29.88R
SMYRNA         CLOUDY    51  49  92 N8        29.85R
COOKEVILLE     PTSUNNY   52  50  93 NE8G15    29.80S
CROSSVILLE     CLOUDY    49  48  97 NE10      29.83S
$$

TNZ061-075-076-078-094-096-097-231300-
SOUTH MIDDLE TENNESSEE

CITY           SKY/WX    TMP DP  RH WIND       PRES   REMARKS
FAYETTEVILLE   CLOUDY    52  52 100 NW5       29.80R
TULLAHOMA      CLOUDY    52  52 100 NE3       29.80R
WINCHESTER     CLOUDY    54  54 100 N5        29.78S
MCMINNVILLE    PTSUNNY   52  52 100 NE7       29.79S
COLUMBIA       CLOUDY   N/A N/A N/A N6        29.82R
SHELBYVILLE    CLOUDY    54  54 100 N9        29.82R
$$

TNZ017-018-042-046-047-231300-
NORTHEAST TENNESSEE

CITY           SKY/WX    TMP DP  RH WIND       PRES   REMARKS
TRI CITIES     LGT RAIN  56  54  93 NE3       29.90R
ELIZABETHTON   LGT RAIN  57  54  88 E7        29.91R
$$

TNZ012-013-036-069-073-074-231300-
CENTRAL EAST TENNESSEE

CITY           SKY/WX    TMP DP  RH WIND       PRES   REMARKS
KNOXVILLE      LGT RAIN  58  56  93 NE10      29.81S FOG
OAK RIDGE      LGT RAIN  54  52  93 VRB3      29.84R FOG
DOWNTOWN KNOXV CLOUDY    59  57  94 CALM      29.84R FOG
GATLINBURG     CLOUDY    55  55 100 CALM      29.83R
MORRISTOWN     CLOUDY    54  54 100 E6        29.84R FOG
JACKSBORO      CLOUDY    52  52 100 SW7       29.89R FOG
$$

TNZ083-085-099-231300-
SOUTHEAST TENNESSEE

CITY           SKY/WX    TMP DP  RH WIND       PRES   REMARKS
CHATTANOOGA    LGT RAIN  62  61  96 SW3       29.77R FOG
$$

SKY/WX REPORTED AS FAIR MEANS FEW OR NO CLOUDS BELOW
12 THOUSAND FEET.




USA.gov is the U.S. government's official web portal to all federal, state and local government web resources and services.